Weather History for Great Bend, KS

Change the Weather History Date:

Friday, March 14, 2014

  Actual Average Record
Temperature  
Mean Temperature 50 °F -  
Max Temperature 64 °F 60 °F 82 °F (2012)
Min Temperature 37 °F 32 °F 10 °F (1958)
Degree Days  
Heating Degree Days 14    
Moisture  
Dew Point 21 °F    
Average Humidity 31    
Maximum Humidity 52    
Minimum Humidity 15    
Precipitation  
Precipitation 0.00 in - - ()
Sea Level Pressure  
Sea Level Pressure 29.93 in    
Wind  
Wind Speed 12 mph (NNW)    
Max Wind Speed 21 mph    
Max Gust Speed 25 mph    
Visibility 10 miles    
Events      
Averages and records for this station are not official NWS values.
T = Trace of Precipitation, MM = Missing Value Source: NWS Daily Summary

Daily Weather History Graph

Daily Weather History Graph

Search for Another Location

Airport:

Trip Planner

Search our weather history database for the weather conditions in past years. The results will help you decide how hot, cold, wet, or windy it might be!

Date:

Astronomy

Mar. 14, 2014 Rise Set
Actual Time 7:48 AM CDT 7:41 PM CDT
Civil Twilight 7:21 AM CDT 8:08 PM CDT
Nautical Twilight 6:51 AM CDT 8:38 PM CDT
Astronomical Twilight 6:20 AM CDT 9:09 PM CDT
Moon 6:06 PM CDT (3/14) 6:27 AM CDT (3/14)
Length of Visible Light 12h 46m
Length of Day
11h 53m
Waxing Gibbous, 96% of the Moon is Illuminated
Mar 14
Waxing Gibbous
Mar 16
Full
Mar 23
Last Quarter
Mar 30
New
Apr 7
First Quarter

Hourly Weather History & Observations

Time (CDT) Temp. Windchill Dew Point Humidity Pressure Visibility Wind Dir Wind Speed Gust Speed Precip Events Conditions
12:15 AM 53.6 °F - 19.4 °F 26% 29.76 in 10.0 mi SSW 16.1 mph 20.7 mph N/A   Mostly Cloudy
12:35 AM 53.6 °F - 19.4 °F 26% 29.76 in 10.0 mi SW 15.0 mph - N/A   Mostly Cloudy
12:55 AM 53.6 °F - 19.4 °F 26% 29.76 in 10.0 mi SW 15.0 mph - N/A   Mostly Cloudy
1:15 AM 51.8 °F - 19.4 °F 28% 29.76 in 10.0 mi SW 13.8 mph - N/A   Mostly Cloudy
1:35 AM 51.8 °F - 19.4 °F 28% 29.76 in 10.0 mi SW 15.0 mph - N/A   Scattered Clouds
1:55 AM 48.2 °F - 19.4 °F 32% 29.77 in 10.0 mi WSW 9.2 mph - N/A   Scattered Clouds
2:15 AM 46.4 °F 41.9 °F 19.4 °F 34% 29.77 in 10.0 mi WSW 9.2 mph - N/A   Mostly Cloudy
2:35 AM 48.2 °F - 21.2 °F 34% 29.77 in 10.0 mi SW 9.2 mph - N/A   Mostly Cloudy
2:55 AM 48.2 °F - 21.2 °F 34% 29.77 in 10.0 mi SW 9.2 mph - N/A   Mostly Cloudy
3:15 AM 46.4 °F 42.4 °F 21.2 °F 37% 29.78 in 10.0 mi WSW 8.1 mph - N/A   Mostly Cloudy
3:35 AM 42.8 °F 38.6 °F 21.2 °F 42% 29.78 in 10.0 mi WSW 6.9 mph - N/A   Scattered Clouds
3:55 AM 44.6 °F 40.7 °F 21.2 °F 39% 29.77 in 10.0 mi West 6.9 mph - N/A   Scattered Clouds
4:15 AM 44.6 °F 38.4 °F 23.0 °F 43% 29.78 in 10.0 mi WSW 12.7 mph - N/A   Mostly Cloudy
4:35 AM 44.6 °F 40.2 °F 23.0 °F 43% 29.78 in 10.0 mi West 8.1 mph - N/A   Mostly Cloudy
4:55 AM 44.6 °F 39.2 °F 24.8 °F 46% 29.79 in 10.0 mi West 10.4 mph - N/A   Scattered Clouds
5:15 AM 46.4 °F 41.1 °F 23.0 °F 40% 29.81 in 10.0 mi NW 11.5 mph - N/A   Partly Cloudy
5:35 AM 46.4 °F 40.4 °F 21.2 °F 37% 29.82 in 10.0 mi North 13.8 mph - N/A   Scattered Clouds
5:55 AM 48.2 °F - 21.2 °F 34% 29.84 in 10.0 mi North 15.0 mph 25.3 mph N/A   Scattered Clouds
6:15 AM 48.2 °F - 21.2 °F 34% 29.87 in 10.0 mi North 16.1 mph - N/A   Scattered Clouds
6:35 AM 46.4 °F 40.4 °F 21.2 °F 37% 29.88 in 10.0 mi North 13.8 mph - N/A   Scattered Clouds
6:55 AM 46.4 °F 40.7 °F 21.2 °F 37% 29.89 in 10.0 mi North 12.7 mph - N/A   Mostly Cloudy
7:15 AM 44.6 °F 38.4 °F 21.2 °F 39% 29.90 in 10.0 mi North 12.7 mph - N/A   Scattered Clouds
7:35 AM 44.6 °F 38.8 °F 23.0 °F 43% 29.91 in 10.0 mi North 11.5 mph - N/A   Scattered Clouds
7:55 AM 42.8 °F 37.0 °F 23.0 °F 46% 29.92 in 10.0 mi NNW 10.4 mph - N/A   Mostly Cloudy
8:15 AM 42.8 °F 37.5 °F 23.0 °F 46% 29.94 in 10.0 mi NNW 9.2 mph - N/A   Mostly Cloudy
8:35 AM 42.8 °F 37.5 °F 23.0 °F 46% 29.96 in 10.0 mi NNW 9.2 mph - N/A   Scattered Clouds
8:55 AM 42.8 °F 37.0 °F 24.8 °F 49% 29.97 in 10.0 mi North 10.4 mph - N/A   Mostly Cloudy
9:15 AM 44.6 °F 38.4 °F 24.8 °F 46% 29.98 in 10.0 mi North 12.7 mph - N/A   Mostly Cloudy
9:35 AM 46.4 °F 40.1 °F 24.8 °F 43% 29.99 in 10.0 mi North 15.0 mph - N/A   Mostly Cloudy
9:55 AM 50.0 °F - 24.8 °F 37% 30.00 in 10.0 mi North 16.1 mph 25.3 mph N/A   Mostly Cloudy
10:15 AM 51.8 °F - 26.6 °F 38% 30.01 in 10.0 mi North 18.4 mph - N/A   Mostly Cloudy
10:35 AM 51.8 °F - 26.6 °F 38% 30.02 in 10.0 mi North 20.7 mph - N/A   Mostly Cloudy
10:55 AM 53.6 °F - 26.6 °F 35% 30.03 in 10.0 mi North 17.3 mph 23.0 mph N/A   Mostly Cloudy
11:15 AM 53.6 °F - 26.6 °F 35% 30.03 in 10.0 mi North 18.4 mph - N/A   Mostly Cloudy
11:35 AM 55.4 °F - 26.6 °F 33% 30.03 in 10.0 mi North 19.6 mph - N/A   Mostly Cloudy
11:55 AM 55.4 °F - 26.6 °F 33% 30.03 in 10.0 mi NNE 18.4 mph - N/A   Mostly Cloudy
12:15 PM 57.2 °F - 24.8 °F 29% 30.03 in 10.0 mi North 19.6 mph 25.3 mph N/A   Mostly Cloudy
12:35 PM 60.8 °F - 24.8 °F 25% 30.03 in 10.0 mi North 16.1 mph 25.3 mph N/A   Mostly Cloudy
12:55 PM 60.8 °F - 24.8 °F 25% 30.03 in 10.0 mi NNE 11.5 mph 21.9 mph N/A   Mostly Cloudy
1:15 PM 60.8 °F - 24.8 °F 25% 30.03 in 10.0 mi North 13.8 mph 21.9 mph N/A   Partly Cloudy
1:35 PM 62.6 °F - 24.8 °F 24% 30.03 in 10.0 mi North 16.1 mph 23.0 mph N/A   Clear
1:55 PM 62.6 °F - 24.8 °F 24% 30.02 in 10.0 mi North 12.7 mph 19.6 mph N/A   Clear
2:15 PM 62.6 °F - 21.2 °F 20% 30.02 in 10.0 mi North 8.1 mph - N/A   Clear
2:35 PM 64.4 °F - 17.6 °F 16% 30.01 in 10.0 mi NNW 15.0 mph 20.7 mph N/A   Clear
2:55 PM 64.4 °F - 15.8 °F 15% 30.01 in 10.0 mi NNE 15.0 mph 20.7 mph N/A   Clear
3:15 PM 62.6 °F - 14.0 °F 15% 30.00 in 8.0 mi North 13.8 mph - N/A   Clear
3:35 PM 64.4 °F - 15.8 °F 15% 29.99 in 10.0 mi NE 11.5 mph 16.1 mph N/A   Clear
3:55 PM 64.4 °F - 15.8 °F 15% 29.99 in 10.0 mi NNW 9.2 mph - N/A   Clear
4:15 PM 64.4 °F - 15.8 °F 15% 29.98 in 10.0 mi North 8.1 mph - N/A   Clear
4:35 PM 64.4 °F - 15.8 °F 15% 29.97 in 10.0 mi North 6.9 mph - N/A   Clear
4:55 PM 64.4 °F - 15.8 °F 15% 29.97 in 10.0 mi NE 4.6 mph - N/A   Clear
5:15 PM 64.4 °F - 15.8 °F 15% 29.97 in 10.0 mi North 8.1 mph - N/A   Clear
5:35 PM 62.6 °F - 15.8 °F 16% 29.97 in 10.0 mi Calm Calm - N/A   Clear
5:55 PM 62.6 °F - 15.8 °F 16% 29.97 in 6.0 mi NNE 6.9 mph - N/A   Clear
6:15 PM 62.6 °F - 15.8 °F 16% 29.97 in 10.0 mi North 3.5 mph - N/A   Clear
6:35 PM 62.6 °F - 15.8 °F 16% 29.97 in 10.0 mi Calm Calm - N/A   Clear
6:55 PM 62.6 °F - 15.8 °F 16% 29.97 in 10.0 mi Calm Calm - N/A   Clear
7:15 PM 60.8 °F - 15.8 °F 17% 29.97 in 10.0 mi Calm Calm - N/A   Clear
7:35 PM 60.8 °F - 15.8 °F 17% 29.98 in 10.0 mi Calm Calm - N/A   Clear
7:55 PM 55.4 °F - 17.6 °F 23% 29.98 in 10.0 mi East 3.5 mph - N/A   Clear
8:15 PM 53.6 °F - 17.6 °F 24% 29.98 in 10.0 mi SE 5.8 mph - N/A   Clear
8:35 PM 48.2 °F - 19.4 °F 32% 29.98 in 10.0 mi SE 5.8 mph - N/A   Clear
8:55 PM 48.2 °F - 17.6 °F 30% 29.98 in 10.0 mi SE 8.1 mph - N/A   Clear
9:15 PM 46.4 °F 42.9 °F 19.4 °F 34% 29.98 in 10.0 mi SSE 6.9 mph - N/A   Clear
9:35 PM 42.8 °F 38.6 °F 19.4 °F 39% 29.98 in 10.0 mi SSE 6.9 mph - N/A   Clear
9:55 PM 42.8 °F 38.6 °F 19.4 °F 39% 29.98 in 10.0 mi SSE 6.9 mph - N/A   Clear
10:15 PM 41.0 °F 37.1 °F 19.4 °F 42% 29.99 in 10.0 mi SSE 5.8 mph - N/A   Partly Cloudy
10:35 PM 37.4 °F 32.1 °F 21.2 °F 52% 29.99 in 10.0 mi SSE 6.9 mph - N/A   Scattered Clouds
10:55 PM 39.2 °F 35.0 °F 19.4 °F 45% 29.99 in 10.0 mi SSE 5.8 mph - N/A   Scattered Clouds
11:15 PM 39.2 °F 35.0 °F 19.4 °F 45% 30.00 in 10.0 mi SSE 5.8 mph - N/A   Scattered Clouds
11:35 PM 41.0 °F 38.0 °F 19.4 °F 42% 29.99 in 10.0 mi SSE 4.6 mph - N/A   Partly Cloudy
11:55 PM 39.2 °F 35.0 °F 19.4 °F 45% 29.99 in 10.0 mi South 5.8 mph - N/A   Clear